TimeCST,TemperatureF,Dew PointF,Humidity,Sea Level PressureIn,VisibilityMPH,Wind Direction,Wind SpeedMPH,Gust SpeedMPH,PrecipitationIn,Events,Conditions,WindDirDegrees,DateUTC
12:15 AM,45.5,-9999,N/A,29.83,2.5,ENE,4.6,-,N/A,,Overcast,60,2012-12-09 06:15:00
12:35 AM,45.5,-9999,N/A,29.83,3.0,ENE,3.5,-,N/A,,Overcast,60,2012-12-09 06:35:00
12:55 AM,45.5,-9999,N/A,29.82,3.0,NE,5.8,-,N/A,,Overcast,40,2012-12-09 06:55:00
1:15 AM,45.5,-9999,N/A,29.82,3.0,NE,3.5,-,N/A,,Overcast,40,2012-12-09 07:15:00
1:35 AM,45.5,-9999,N/A,29.81,3.0,NE,5.8,-,N/A,,Overcast,40,2012-12-09 07:35:00
1:55 AM,45.5,-9999,N/A,29.81,4.0,ENE,4.6,-,N/A,,Overcast,60,2012-12-09 07:55:00
2:15 AM,45.5,-9999,N/A,29.81,4.0,ENE,3.5,-,N/A,,Overcast,70,2012-12-09 08:15:00
2:35 AM,45.5,-9999,N/A,29.81,4.0,NE,4.6,-,N/A,,Overcast,50,2012-12-09 08:35:00
2:55 AM,45.5,-9999,N/A,29.81,4.0,NE,4.6,-,N/A,,Overcast,50,2012-12-09 08:55:00
3:15 AM,45.5,-9999,N/A,29.79,4.0,NE,5.8,-,N/A,,Overcast,40,2012-12-09 09:15:00
3:35 AM,45.5,-9999,N/A,29.79,4.0,NE,3.5,-,N/A,,Overcast,50,2012-12-09 09:35:00
3:55 AM,45.5,-9999,N/A,29.79,4.0,Calm,Calm,-,N/A,,Overcast,0,2012-12-09 09:55:00
4:15 AM,45.5,-9999,N/A,29.80,4.0,ENE,3.5,-,N/A,,Overcast,60,2012-12-09 10:15:00
4:35 AM,45.5,-9999,N/A,29.79,4.0,ENE,4.6,-,N/A,,Overcast,60,2012-12-09 10:35:00
4:55 AM,45.7,-9999,N/A,29.79,4.0,Calm,Calm,-,N/A,,Overcast,0,2012-12-09 10:55:00
5:15 AM,45.5,-9999,N/A,29.79,4.0,NNE,4.6,-,N/A,,Overcast,30,2012-12-09 11:15:00
5:35 AM,45.5,-9999,N/A,29.81,3.0,North,3.5,-,N/A,,Overcast,10,2012-12-09 11:35:00
5:55 AM,45.5,-9999,N/A,29.80,2.5,North,4.6,-,N/A,,Overcast,10,2012-12-09 11:55:00
6:15 AM,45.5,-9999,N/A,29.81,2.5,North,3.5,-,N/A,,Overcast,10,2012-12-09 12:15:00
6:35 AM,45.1,-9999,N/A,29.81,2.5,North,5.8,-,N/A,,Overcast,10,2012-12-09 12:35:00
6:55 AM,44.8,-9999,N/A,29.82,2.5,NNE,5.8,-,N/A,,Overcast,20,2012-12-09 12:55:00
7:15 AM,44.6,-9999,N/A,29.83,2.5,North,3.5,-,N/A,,Overcast,10,2012-12-09 13:15:00
7:35 AM,44.6,-9999,N/A,29.85,2.0,Calm,Calm,-,N/A,,Overcast,0,2012-12-09 13:35:00
7:55 AM,44.6,-9999,N/A,29.85,2.0,North,3.5,-,N/A,,Overcast,360,2012-12-09 13:55:00
8:15 AM,44.8,-9999,N/A,29.86,1.5,North,4.6,-,N/A,,Overcast,360,2012-12-09 14:15:00
8:35 AM,45.0,-9999,N/A,29.87,2.0,NNW,6.9,-,N/A,,Overcast,340,2012-12-09 14:35:00
8:55 AM,45.3,-9999,N/A,29.87,2.5,North,6.9,-,N/A,,Overcast,360,2012-12-09 14:55:00
9:15 AM,45.5,-9999,N/A,29.87,3.0,North,6.9,-,N/A,,Overcast,360,2012-12-09 15:15:00
9:35 AM,45.5,-9999,N/A,29.87,4.0,North,8.1,-,N/A,,Overcast,360,2012-12-09 15:35:00
9:55 AM,45.5,45.7,100,29.89,5.0,North,9.2,18.4,N/A,,Overcast,360,2012-12-09 15:55:00
10:35 AM,46.0,46.0,100,29.89,7.0,North,10.4,16.1,N/A,,Mostly Cloudy,10,2012-12-09 16:35:00
10:55 AM,47.8,47.1,97,29.89,7.0,NNE,11.5,17.3,N/A,,Mostly Cloudy,20,2012-12-09 16:55:00
11:15 AM,48.2,46.2,93,29.88,10.0,North,8.1,-,N/A,,Mostly Cloudy,10,2012-12-09 17:15:00
11:35 AM,48.2,45.0,89,29.88,10.0,NNE,15.0,19.6,N/A,,Mostly Cloudy,20,2012-12-09 17:35:00
11:55 AM,48.2,44.2,86,29.88,10.0,North,8.1,-,N/A,,Overcast,10,2012-12-09 17:55:00
12:15 PM,48.2,43.7,84,29.88,10.0,North,8.1,-,N/A,,Overcast,10,2012-12-09 18:15:00
12:35 PM,48.2,42.8,82,29.88,10.0,North,8.1,-,N/A,,Overcast,350,2012-12-09 18:35:00
12:55 PM,48.2,40.6,75,29.88,10.0,North,6.9,-,N/A,,Overcast,10,2012-12-09 18:55:00
1:15 PM,48.7,41.0,75,29.89,10.0,North,8.1,-,N/A,,Mostly Cloudy,350,2012-12-09 19:15:00
1:35 PM,48.2,40.3,74,29.89,10.0,North,6.9,-,N/A,,Mostly Cloudy,350,2012-12-09 19:35:00
1:55 PM,48.2,40.1,74,29.88,10.0,North,6.9,-,N/A,,Mostly Cloudy,350,2012-12-09 19:55:00
2:15 PM,48.6,40.3,73,29.89,10.0,North,9.2,17.3,N/A,,Mostly Cloudy,350,2012-12-09 20:15:00
2:35 PM,47.3,40.1,76,29.89,7.0,NNW,11.5,-,N/A,,Mostly Cloudy,330,2012-12-09 20:35:00
2:55 PM,45.5,39.0,78,29.90,7.0,NNW,10.4,-,N/A,,Mostly Cloudy,340,2012-12-09 20:55:00
3:15 PM,45.5,37.9,75,29.91,10.0,North,8.1,-,N/A,,Mostly Cloudy,350,2012-12-09 21:15:00
3:35 PM,46.9,37.9,71,29.91,10.0,NNW,13.8,17.3,N/A,,Overcast,340,2012-12-09 21:35:00
3:55 PM,48.0,36.9,65,29.92,10.0,NNW,16.1,21.9,N/A,,Overcast,340,2012-12-09 21:55:00
4:15 PM,45.1,34.0,65,29.93,10.0,North,12.7,20.7,N/A,,Overcast,350,2012-12-09 22:15:00
4:35 PM,44.1,32.5,64,29.94,10.0,NNW,10.4,20.7,N/A,,Overcast,340,2012-12-09 22:35:00
4:55 PM,43.3,31.8,64,29.95,10.0,NNW,12.7,20.7,N/A,,Mostly Cloudy,340,2012-12-09 22:55:00
5:15 PM,41.9,28.9,60,29.96,10.0,NNW,11.5,16.1,N/A,,Clear,340,2012-12-09 23:15:00
5:35 PM,40.3,27.0,59,29.97,10.0,NNW,17.3,25.3,N/A,,Clear,340,2012-12-09 23:35:00
5:55 PM,38.3,25.2,59,29.99,10.0,NNW,15.0,24.2,N/A,,Clear,340,2012-12-09 23:55:00
6:15 PM,37.8,24.4,59,29.99,10.0,NNW,13.8,23.0,N/A,,Clear,340,2012-12-10 00:15:00
6:35 PM,36.0,23.2,60,30.00,10.0,North,9.2,17.3,N/A,,Clear,350,2012-12-10 00:35:00
6:55 PM,35.6,22.5,59,30.02,10.0,NNW,13.8,21.9,N/A,,Clear,340,2012-12-10 00:55:00
7:15 PM,35.1,21.6,58,30.03,10.0,NNW,15.0,23.0,N/A,,Clear,340,2012-12-10 01:15:00
7:35 PM,32.9,19.9,59,30.03,10.0,North,12.7,17.3,N/A,,Clear,350,2012-12-10 01:35:00
7:55 PM,31.6,18.1,57,30.04,10.0,NNW,18.4,26.5,N/A,,Clear,340,2012-12-10 01:55:00
8:15 PM,30.7,16.7,56,30.04,10.0,North,11.5,23.0,N/A,,Clear,350,2012-12-10 02:15:00
8:35 PM,30.7,16.2,55,30.04,10.0,North,15.0,24.2,N/A,,Clear,350,2012-12-10 02:35:00
8:55 PM,30.7,16.0,54,30.05,10.0,North,8.1,18.4,N/A,,Clear,350,2012-12-10 02:55:00
9:15 PM,30.7,16.5,56,30.05,10.0,North,9.2,-,N/A,,Clear,350,2012-12-10 03:15:00
9:35 PM,30.7,16.7,56,30.05,10.0,North,10.4,-,N/A,,Clear,350,2012-12-10 03:35:00
9:55 PM,30.7,17.2,57,30.04,10.0,NNW,9.2,16.1,N/A,,Clear,340,2012-12-10 03:55:00
10:15 PM,30.7,17.1,57,30.05,10.0,North,11.5,19.6,N/A,,Clear,350,2012-12-10 04:15:00
10:35 PM,30.7,16.9,56,30.06,10.0,NNW,10.4,19.6,N/A,,Clear,340,2012-12-10 04:35:00
10:55 PM,30.4,18.0,60,30.08,10.0,NNW,11.5,19.6,N/A,,Clear,340,2012-12-10 04:55:00
11:15 PM,28.4,16.9,62,30.08,10.0,NNW,10.4,19.6,N/A,,Clear,330,2012-12-10 05:15:00
11:35 PM,28.2,17.1,63,30.07,10.0,NNW,11.5,20.7,N/A,,Clear,340,2012-12-10 05:35:00
11:55 PM,28.2,17.2,63,30.07,10.0,NNW,8.1,-,N/A,,Clear,340,2012-12-10 05:55:00